User: anonymous   Login
Location: Unspecified
(0.0000°N, 0.0000°E)
Time: 02:58:59
(UTC+00:00)
Language:

STARLINK-11078 [DTC] - Orbit

View from above orbital plane
View from above orbital plane
View from above satellite
View from above satellite

Ground track
Ground track

The orbit is defined by the following mean orbital elements,

1 58710U          26145.30894862 +.00000000 +00000-0 +98646-5 0 00000
2 58710  53.1600 256.1392 0001035  98.7127 261.4009 15.69708704    08
Epoch (UTC): 25 May 2026 07:24:53
Eccentricity: 0.0001035
inclination: 53.1600°
perigee height: 359 km
apogee height: 360 km
right ascension of ascending node: 256.1392°
argument of perigee: 98.7127°
revolutions per day: 15.69708704
mean anomaly at epoch: 261.4009°

The dashed part of the orbit path shows where the satellite is in the earth's shadow,  

DLR